sat.trackr.live / text

‹ back to catalog

ONEWEB-0456

NORAD 51646 · 2022-012AA

PAYLOAD ACTIVE UNKNOWN

§ Identity

Operator
Country
UK
Launch date
2022-02-10
Launch site
FRGUI
Launch vehicle
Mass (kg)
RCS (m²)

Purposes: comms

External: N2YO · Heavens-Above · Gunter

§ Orbital elements

Epoch: 2026-05-25T03:08:09.216672Z

Period
109.89 min
Inclination
87.8869°
Eccentricity
0.0001764
Mean motion
13.10380042 rev/d
Perigee alt
1,220.3 km
Apogee alt
1,223.0 km
Semi-major
7,599.8 km
B*
-1.3972e-3
RAAN
40.8409°
Arg perigee
73.0345°
Mean anomaly
287.0976°
Rev number
20,632

§ Raw data

ONEWEB-04561 51646U 22012AA  26145.13066223 -.00000475  00000+0 -13972-2 0  99912 51646  87.8869  40.8409 0001764  73.0345 287.0976 13.10380042206329

JSON: /api/v1/satellites/51646 · /tle

For live sub-satellite position, see the globe view (requires WebGL).

§ Visibility from observer

Set your observer location to see the next 7 days of passes ≥ 10°. The values pass through the URL so the page stays shareable.

No JS? Fill the form by hand. The geolocation button needs JavaScript.